When you browse on this site, cookies collect data to enhance your experience and personalize the content and advertising you see.
Visit our Privacy Policy to learn more. By continuing to use the site, you agree to this use of cookies and data.
  • In Hungary
  • List of Countries
  • For 7 days
  • Water Temperature
  • Weather Map
  • News
  • Weather Widgets
  • user-avatar
    Login

    Hourly Weather Veendam

    Today, 19 August, Monday

    Time Temperature Precipitation Wind Pressure Humidity
    00:00 +13°C° 0 mm 4 mps 756 mmHg 94%
    01:00 +13°C° 0 mm 4 mps 756 mmHg 93%
    02:00 +13°C° 0 mm 5 mps 756 mmHg 93%
    03:00 +12°C° 0 mm 5 mps 757 mmHg 92%
    04:00 +13°C° 0.1 mm 5 mps 757 mmHg 92%
    05:00 +13°C° 0.1 mm 6 mps 758 mmHg 92%
    06:00 +13°C° 0.1 mm 6 mps 758 mmHg 92%
    07:00 +15°C° 0.1 mm 6 mps 758 mmHg 86%
    08:00 +16°C° 0.1 mm 7 mps 759 mmHg 80%
    09:00 +18°C° 0.1 mm 7 mps 759 mmHg 73%
    10:00 +18°C° 0.1 mm 7 mps 759 mmHg 69%
    11:00 +20°C° 0.1 mm 7 mps 760 mmHg 65%
    12:00 +21°C° 0.1 mm 7 mps 760 mmHg 61%
    13:00 +21°C° 0.1 mm 7 mps 760 mmHg 61%
    14:00 +21°C° 0.1 mm 7 mps 760 mmHg 62%
    15:00 +21°C° 0.1 mm 7 mps 761 mmHg 62%
    16:00 +20°C° 0 mm 5 mps 761 mmHg 67%
    17:00 +19°C° 0 mm 4 mps 761 mmHg 71%
    18:00 +18°C° 0 mm 3 mps 761 mmHg 75%
    19:00 +17°C° 0 mm 3 mps 761 mmHg 77%
    20:00 +14°C° 0 mm 3 mps 762 mmHg 79%
    21:00 +13°C° 0 mm 3 mps 762 mmHg 82%
    22:00 +13°C° 0 mm 4 mps 762 mmHg 82%
    23:00 +13°C° 0 mm 4 mps 762 mmHg 83%

    Tomorrow, 20 August, Tuesday

    Time Temperature Precipitation Wind Pressure Humidity
    00:00 +12°C° 0 mm 4 mps 762 mmHg 83%
    01:00 +12°C° 0 mm 4 mps 762 mmHg 84%
    02:00 +12°C° 0 mm 4 mps 762 mmHg 85%
    03:00 +12°C° 0 mm 4 mps 762 mmHg 85%
    04:00 +12°C° 0 mm 5 mps 763 mmHg 86%
    05:00 +13°C° 0 mm 5 mps 763 mmHg 87%
    06:00 +13°C° 0 mm 5 mps 763 mmHg 87%
    07:00 +15°C° 0.1 mm 5 mps 764 mmHg 82%
    08:00 +16°C° 0.1 mm 5 mps 764 mmHg 77%
    09:00 +19°C° 0.1 mm 5 mps 764 mmHg 71%
    10:00 +19°C° 0.3 mm 5 mps 765 mmHg 69%
    11:00 +20°C° 0.3 mm 5 mps 765 mmHg 66%
    12:00 +20°C° 0.3 mm 5 mps 765 mmHg 64%
    13:00 +20°C° 0.1 mm 5 mps 765 mmHg 63%
    14:00 +20°C° 0.1 mm 5 mps 766 mmHg 62%
    15:00 +20°C° 0.1 mm 5 mps 766 mmHg 61%
    16:00 +19°C° 0.1 mm 4 mps 766 mmHg 67%
    17:00 +18°C° 0.1 mm 3 mps 766 mmHg 74%
    18:00 +17°C° 0.1 mm 3 mps 767 mmHg 80%
    19:00 +15°C° 0 mm 2 mps 767 mmHg 83%
    20:00 +14°C° 0 mm 2 mps 768 mmHg 87%
    21:00 +13°C° 0 mm 2 mps 768 mmHg 91%
    22:00 +12°C° 0 mm 2 mps 768 mmHg 90%
    23:00 +12°C° 0 mm 2 mps 768 mmHg 90%

    Day after tomorrow, 21 August, Wednesday

    Time Temperature Precipitation Wind Pressure Humidity
    00:00 +12°C° 0 mm 2 mps 768 mmHg 90%
    01:00 +12°C° 0 mm 2 mps 768 mmHg 91%
    02:00 +10°C° 0 mm 3 mps 768 mmHg 92%
    03:00 +10°C° 0 mm 3 mps 769 mmHg 93%
    04:00 +11°C° 0 mm 3 mps 769 mmHg 91%
    05:00 +12°C° 0 mm 3 mps 769 mmHg 89%
    06:00 +12°C° 0 mm 3 mps 769 mmHg 87%
    07:00 +14°C° 0 mm 3 mps 769 mmHg 80%
    08:00 +17°C° 0 mm 3 mps 769 mmHg 74%
    09:00 +19°C° 0 mm 3 mps 769 mmHg 67%
    10:00 +20°C° 0.1 mm 3 mps 769 mmHg 64%
    11:00 +20°C° 0.1 mm 3 mps 769 mmHg 61%
    12:00 +21°C° 0.1 mm 2 mps 769 mmHg 58%
    13:00 +21°C° 0.1 mm 2 mps 769 mmHg 58%
    14:00 +21°C° 0.1 mm 2 mps 769 mmHg 57%
    15:00 +22°C° 0.1 mm 1 mps 769 mmHg 57%
    16:00 +21°C° 0 mm 1 mps 769 mmHg 62%
    17:00 +20°C° 0 mm 1 mps 769 mmHg 68%
    18:00 +19°C° 0 mm 1 mps 768 mmHg 73%
    19:00 +18°C° 0 mm 1 mps 768 mmHg 76%
    20:00 +15°C° 0 mm 2 mps 768 mmHg 79%
    21:00 +14°C° 0 mm 2 mps 768 mmHg 82%
    22:00 +14°C° 0 mm 2 mps 768 mmHg 80%
    23:00 +14°C° 0 mm 2 mps 768 mmHg 79%

    22 August, Thursday

    Time Temperature Precipitation Wind Pressure Humidity
    00:00 +14°C° 0 mm 2 mps 768 mmHg 77%
    01:00 +13°C° 0 mm 2 mps 768 mmHg 78%
    02:00 +13°C° 0 mm 2 mps 767 mmHg 78%
    03:00 +13°C° 0 mm 2 mps 767 mmHg 79%
    04:00 +13°C° 0 mm 2 mps 767 mmHg 77%
    05:00 +13°C° 0 mm 3 mps 767 mmHg 76%
    06:00 +13°C° 0 mm 3 mps 767 mmHg 75%
    07:00 +16°C° 0 mm 3 mps 767 mmHg 72%
    08:00 +17°C° 0 mm 3 mps 767 mmHg 70%
    09:00 +19°C° 0 mm 3 mps 767 mmHg 67%
    10:00 +20°C° 0 mm 3 mps 767 mmHg 62%
    11:00 +21°C° 0 mm 4 mps 767 mmHg 58%
    12:00 +23°C° 0 mm 4 mps 767 mmHg 53%
    13:00 +23°C° 0 mm 4 mps 767 mmHg 53%
    14:00 +23°C° 0 mm 4 mps 767 mmHg 53%
    15:00 +23°C° 0 mm 4 mps 767 mmHg 53%
    16:00 +21°C° 0 mm 3 mps 767 mmHg 59%
    17:00 +20°C° 0 mm 3 mps 767 mmHg 65%
    18:00 +19°C° 0 mm 2 mps 767 mmHg 71%
    19:00 +17°C° 0 mm 2 mps 767 mmHg 74%
    20:00 +16°C° 0 mm 1 mps 767 mmHg 77%
    21:00 +13°C° 0 mm 0 mps 768 mmHg 81%
    22:00 +14°C° 0 mm 1 mps 768 mmHg 80%
    23:00 +14°C° 0 mm 1 mps 768 mmHg 79%

    23 August, Friday

    Time Temperature Precipitation Wind Pressure Humidity
    00:00 +14°C° 0 mm 2 mps 768 mmHg 78%
    01:00 +14°C° 0 mm 2 mps 767 mmHg 77%
    02:00 +13°C° 0 mm 2 mps 767 mmHg 76%
    03:00 +13°C° 0 mm 2 mps 767 mmHg 75%
    04:00 +14°C° 0 mm 2 mps 767 mmHg 75%
    05:00 +13°C° 0 mm 3 mps 767 mmHg 74%
    06:00 +13°C° 0 mm 3 mps 767 mmHg 74%
    07:00 +17°C° 0 mm 3 mps 767 mmHg 69%
    08:00 +19°C° 0 mm 3 mps 768 mmHg 64%
    09:00 +21°C° 0 mm 3 mps 768 mmHg 60%
    10:00 +22°C° 0 mm 3 mps 768 mmHg 57%
    11:00 +24°C° 0 mm 3 mps 768 mmHg 55%
    12:00 +25°C° 0 mm 2 mps 768 mmHg 52%
    13:00 +25°C° 0 mm 2 mps 767 mmHg 52%
    14:00 +25°C° 0 mm 2 mps 767 mmHg 51%
    15:00 +26°C° 0 mm 1 mps 767 mmHg 51%
    16:00 +24°C° 0 mm 1 mps 767 mmHg 58%
    17:00 +23°C° 0 mm 1 mps 767 mmHg 65%
    18:00 +21°C° 0 mm 1 mps 766 mmHg 72%
    19:00 +19°C° 0 mm 2 mps 767 mmHg 75%
    20:00 +18°C° 0 mm 2 mps 767 mmHg 79%
    21:00 +17°C° 0 mm 2 mps 767 mmHg 82%
    22:00 +17°C° 0 mm 2 mps 766 mmHg 83%
    23:00 +16°C° 0 mm 3 mps 766 mmHg 83%

    24 August, Saturday

    Time Temperature Precipitation Wind Pressure Humidity
    00:00 +16°C° 0 mm 3 mps 766 mmHg 83%
    01:00 +16°C° 0 mm 3 mps 765 mmHg 83%
    02:00 +16°C° 0 mm 3 mps 765 mmHg 82%
    03:00 +14°C° 0 mm 3 mps 764 mmHg 82%
    04:00 +16°C° 0 mm 3 mps 764 mmHg 80%
    05:00 +16°C° 0 mm 2 mps 764 mmHg 79%
    06:00 +17°C° 0 mm 2 mps 764 mmHg 78%
    07:00 +19°C° 0 mm 2 mps 764 mmHg 72%
    08:00 +21°C° 0 mm 3 mps 764 mmHg 66%
    09:00 +24°C° 0 mm 3 mps 763 mmHg 60%
    10:00 +25°C° 0 mm 3 mps 763 mmHg 57%
    11:00 +26°C° 0 mm 3 mps 763 mmHg 54%
    12:00 +27°C° 0 mm 3 mps 762 mmHg 52%
    13:00 +27°C° 0 mm 2 mps 762 mmHg 51%
    14:00 +27°C° 0 mm 2 mps 762 mmHg 51%
    15:00 +27°C° 0 mm 2 mps 761 mmHg 50%
    16:00 +26°C° 0 mm 2 mps 761 mmHg 56%
    17:00 +25°C° 0 mm 2 mps 761 mmHg 63%
    18:00 +23°C° 0 mm 2 mps 761 mmHg 69%
    19:00 +21°C° 0 mm 2 mps 761 mmHg 73%
    20:00 +20°C° 0 mm 2 mps 761 mmHg 77%
    21:00 +20°C° 0 mm 1 mps 761 mmHg 81%
    22:00 +19°C° 0 mm 1 mps 760 mmHg 82%
    23:00 +19°C° 0 mm 1 mps 760 mmHg 83%
    Show more